IU2QRC-3 Weather Reports


time (UTC)temp
F
wind
direction
speed
knots
gust
knots
rain 1hr
in
rain 24hr
in
rain mn
in
humidity
%
barometer
mb
20260506115722 61 0.0 0.0 0.00 0.00 0.00 48 1006.7
20260506113721 70 0.0 0.0 0.00 0.00 0.00 44 1006.0
20260506111721 67 0.0 0.0 0.00 0.00 0.00 51 1006.1
20260506110111 60 0.0 0.0 0.00 0.00 0.00 51 1007.0
20260506104110 58 0.0 0.0 0.00 0.00 0.00 54 1007.2
20260506102109 55 0.0 0.0 0.00 0.00 0.00 59 1007.5
20260506100109 56 0.0 0.0 0.00 0.00 0.00 59 1007.6
20260506094108 67 0.0 0.0 0.00 0.00 0.00 43 1006.5
20260506093212 65 0.0 0.0 0.00 0.00 0.00 43 1006.7
20260506082724 57 0.0 0.0 0.00 0.00 0.00 54 1007.0
20260506080724 59 0.0 0.0 0.00 0.00 0.00 52 1007.0
20260506072723 68 0.0 0.0 0.00 0.00 0.00 40 1006.6
20260506070723 65 0.0 0.0 0.00 0.00 0.00 43 1006.8
20260506060722 56 0.0 0.0 0.00 0.00 0.00 59 1007.6
20260506050721 55 0.0 0.0 0.00 0.00 0.00 62 1008.1
20260506044720 57 0.0 0.0 0.00 0.00 0.00 60 1007.7
20260506042720 56 0.0 0.0 0.00 0.00 0.00 60 1008.2
20260506040720 57 0.0 0.0 0.00 0.00 0.00 58 1007.9
20260506034720 56 0.0 0.0 0.00 0.00 0.00 61 1008.0
20260506032719 57 0.0 0.0 0.00 0.00 0.00 59 1007.8
20260506030719 57 0.0 0.0 0.00 0.00 0.00 59 1008.1
20260506024719 54 0.0 0.0 0.00 0.00 0.00 64 1008.8
20260506022718 57 0.0 0.0 0.00 0.00 0.00 59 1008.7
20260506020718 57 0.0 0.0 0.00 0.00 0.00 60 1008.8
20260506014717 57 0.0 0.0 0.00 0.00 0.00 58 1009.0
20260506012717 58 0.0 0.0 0.00 0.00 0.00 57 1009.0
20260506010717 59 0.0 0.0 0.00 0.00 0.00 57 1009.1
20260506004716 58 0.0 0.0 0.00 0.00 0.00 58 1009.2
20260506002716 58 0.0 0.0 0.00 0.00 0.00 58 1009.5
20260506000716 59 0.0 0.0 0.00 0.00 0.00 57 1009.6